Location: *
(28.3744°N, 81.5492°W)
Time: 03:03:48
(UTC+00:00)

SL-16 R/B - Pass Details

Date: 15 June 2025
Orbit: 841 x 844 km, 71.0° (Epoch: 11 July)

Event Time Altitude Azimuth Distance (km) Brightness Sun altitude
Rises 00:57:30 0° 324° (NW) 3,402 6.8 -7.1°
Reaches altitude 10° 01:00:19 10° 312° (NW) 2,464 6.3 -7.6°
Maximum altitude 01:04:52 25° 258° (WSW) 1,621 4.3 -8.5°
Drops below altitude 10° 01:09:24 10° 204° (SSW) 2,454 4.5 -9.3°
Sets 01:12:13 0° 192° (SSW) 3,385 5.1 -9.8°
